226P/Pigott-LINEAR-Kowalski (2023)

Japanese version
Home page
Updated on December 1, 2023

---------------------------------------------------------------------

* Profile

* Pictures

* Orbital Elements

Epoch 2023 Feb. 25.0 TT = JDT 2460000.5
T 2023 Dec. 27.25000 TT                                 Rudenko
q   1.7738684            (2000.0)            P               Q
n   0.13486128     Peri.  341.07388     +0.74447408     -0.35958687
a   3.7659788      Node    54.01351     +0.66625984     +0.34575595
e   0.5289755      Incl.   44.04502     +0.04308326     +0.86668916
P   7.31
>From 1262 observations 1995 Oct. 29-2023 Sept. 27, mean residual 2".7.
     Nongravitational parameters A1 = +0.00, A2 = +0.0000.

* Finding Charts

* Magnitudes Graph

        m1 = 7.0 + 5 log d + 30 log r(t - 15)

---------------------------------------------------------------------

The orbital elements are published on M.P.E.C. 2023-S260.
The charts are made with StellaNavigator Ver.11 (AstroArts).
The magnitudes graphs are made with Comet for Windows.

---------------------------------------------------------------------

Copyright(C) Seiichi Yoshida (comet@aerith.net). All rights reserved.